This is the latest recevied weather packets stored in our database for station/object DG8SF-13. If no packets are shown the sender has not sent any weather packets the latest 10 day(s).
| Time | Temp. | Humidity | Pressure | Rain* | Wind** | Luminosity | Snow |
|---|---|---|---|---|---|---|---|
| 1777746163 | 18.89° C | 39% | 1016.4 hPa | 0 mm | - | - | - |
| 1777745851 | 19.44° C | 39% | 1016.3 hPa | 0 mm | - | - | - |
| 1777745539 | 20° C | 39% | 1016.2 hPa | 0 mm | - | - | - |
| 1777745227 | 20° C | 37% | 1016.3 hPa | 0 mm | - | - | - |
| 1777744914 | 20.56° C | 37% | 1016.3 hPa | 0 mm | - | - | - |
| 1777744607 | 21.11° C | 36% | 1016.2 hPa | 0 mm | - | - | - |
| 1777744292 | 21.67° C | 32% | 1016.2 hPa | 0 mm | - | - | - |
| 1777743979 | 22.22° C | 33% | 1016.2 hPa | 0 mm | - | - | - |
| 1777743666 | 22.22° C | 32% | 1016.3 hPa | 0 mm | - | - | - |
| 1777743357 | 23.33° C | 33% | 1016.2 hPa | 0 mm | - | - | - |
| 1777743042 | 24.44° C | 29% | 1016.2 hPa | 0 mm | - | - | - |
| 1777742730 | 25.56° C | 26% | 1016.2 hPa | 0 mm | - | - | - |
| 1777742421 | 27.22° C | 24% | 1016.2 hPa | 0 mm | - | - | - |
| 1777742106 | 27.22° C | 26% | 1016.3 hPa | 0 mm | - | - | - |
| 1777741797 | 28.33° C | 24% | 1016.3 hPa | 0 mm | - | - | - |
| 1777741482 | 29.44° C | 21% | 1016.2 hPa | 0 mm | - | - | - |
| 1777741171 | 27.22° C | 24% | 1016.3 hPa | 0 mm | - | - | - |
| 1777740859 | 26.11° C | 24% | 1016.4 hPa | 0 mm | - | - | - |
| 1777740550 | 26.11° C | 22% | 1016.4 hPa | 0 mm | - | - | - |
| 1777740235 | 26.67° C | 23% | 1016.4 hPa | 0 mm | - | - | - |
| 1777739923 | 27.78° C | 22% | 1016.5 hPa | 0 mm | - | - | - |
| 1777739611 | 29.44° C | 23% | 1016.5 hPa | 0 mm | - | - | - |
| 1777739303 | 30° C | 20% | 1016.6 hPa | 0 mm | - | - | - |
| 1777738987 | 28.89° C | 20% | 1016.6 hPa | 0 mm | - | - | - |
| 1777738676 | 28.89° C | 21% | 1016.7 hPa | 0 mm | - | - | - |
* Rain latest hour (hover to see other rain measurements)
** Current wind speed in m/s (hover to see current wind gust speed)